Flag for U.S.A. Weather past 2 weeks in Concord, California, U.S.A.

Now
66 °F

Clear.


Feels Like: 66 °F
Forecast: 61 / 88 °F
Wind: 5 mph from South

Location: Buchanan Field

Current Time: Sep 30, 2014 at 11:47:56 PM

Latest Report: Sep 30, 2014 at 10:53 PM


Visibility: 10 mi

Pressure: 29.80 "Hg

Humidity: 68%

Dew point: 55 °F

Location of ConcordLocation

Historic Weather in Concord — Graph

°F

Concord temperature yesterday

Maximum temperature yesterday: 80 °F (at 2:53 PM)
Minimum temperature yesterday: 56 °F (at 4:53 AM)
Average temperature yesterday: 65 °F

Past Weeks' High & Low Weather Summary

 TemperatureHumidityPressure
High87 °F (Sep 16, 3:53 PM)96% (Sep 29, 6:53 AM)30.02 "Hg (Sep 29, 6:53 AM)
Low56 °F (Sep 29, 4:53 AM)23% (Sep 16, 3:53 PM)29.69 "Hg (Sep 17, 4:53 PM)
Average68 °F68%29.87 "Hg
* Reported Sep 15 10:53 PM — Sep 30 10:53 PM, Concord, Weather by CustomWeather, © 2014

Note: Actual official high and low records may vary slightly from our data, if they occured in-between our weather recording intervals... More about our weather records

Advertising

Concord weather history for previous 24 hours

 ConditionsComfort  
Time TempWeatherWind HumidityBarometerVisibility
10:53 PM
Sep 30
66 °FClear.5 mph68%29.80 "Hg10 mi
9:53 PM67 °FClear.No wind61%29.80 "Hg10 mi
8:53 PM71 °FClear.3 mph53%29.80 "Hg10 mi
7:53 PM73 °FClear.10 mph51%29.80 "Hg10 mi
6:53 PM76 °FSunny.10 mph48%29.79 "Hg10 mi
5:53 PM79 °FSunny.8 mph44%29.78 "Hg10 mi
4:53 PM80 °FSunny.6 mph41%29.79 "Hg10 mi
3:53 PM80 °FPassing clouds.8 mph41%29.81 "Hg10 mi
2:53 PM79 °FPassing clouds.8 mph42%29.83 "Hg10 mi
1:53 PM76 °FSunny.No wind45%29.86 "Hg10 mi
12:53 PM74 °FPassing clouds.5 mph52%29.88 "Hg10 mi
11:53 AM71 °FSunny.6 mph59%29.89 "Hg10 mi
10:53 AM69 °FPassing clouds.9 mph63%29.91 "Hg10 mi
9:53 AM66 °FSunny.10 mph70%29.92 "Hg10 mi
8:53 AM64 °FSunny.6 mph78%29.92 "Hg10 mi
7:53 AM60 °FClear.8 mph86%29.90 "Hg10 mi
6:53 AM59 °FClear.9 mph87%29.90 "Hg10 mi
5:53 AM60 °FClear.8 mph83%29.90 "Hg10 mi
4:53 AM60 °FClear.9 mph86%29.90 "Hg10 mi
3:53 AM60 °FClear.9 mph86%29.90 "Hg10 mi
2:53 AM61 °FClear.12 mph83%29.91 "Hg10 mi
1:53 AM61 °FClear.15 mph83%29.90 "Hg10 mi
12:53 AM61 °FClear.14 mph83%29.91 "Hg10 mi
11:53 PM
Sep 29
61 °FClear.14 mph83%29.92 "Hg10 mi
Weather by CustomWeather, © 2014

See weather overviewHow to use our weather pages